Theta_e
351 353 353 353 353 353 352 352 352 351 350 350 349 350 350 349 350 350 350 349 350 350 350 347 342 341 341 339 339 338 339 340 341 341 342 345 345 344 346 347 347 346 346 346 347 345 344 342 342 343 344 346 347 348 346 345 344 344 345 345 345 345 345 344 342 340 339 339 340 341 342 342 342 342 342 342 341 340 339 338 338 340 340 340 339
352 353 353 354 354 352 352 354 352 351 350 350 349 348 349 350 351 351 350 349 349 350 348 344 341 340 338 339 340 341 340 339 340 339 339 345 347 343 343 345 346 347 346 347 347 347 346 344 343 342 342 344 345 347 348 347 345 344 344 345 346 345 345 345 344 343 341 340 339 339 339 340 341 342 342 342 341 341 340 339 339 339 338 337 336
353 354 355 355 355 351 352 353 352 352 352 352 350 349 350 350 350 351 350 349 349 348 346 342 342 341 338 339 341 341 342 340 340 338 337 340 342 340 341 343 345 347 347 347 347 347 346 345 344 343 343 344 344 345 347 346 344 344 344 344 346 346 345 345 344 344 343 342 341 339 338 338 338 339 340 340 340 340 341 341 340 339 338 336 334
355 357 355 355 356 353 352 352 352 353 353 353 351 350 351 351 350 350 349 349 348 346 344 341 342 341 340 341 342 342 342 341 341 339 337 336 336 339 342 341 343 345 345 345 346 346 346 346 346 346 346 346 346 346 346 344 342 345 346 345 344 344 346 346 345 345 344 344 343 342 340 339 338 338 338 338 338 339 339 340 340 340 339 338 336
357 357 355 355 355 354 354 353 353 353 353 352 351 351 352 351 350 349 348 348 346 345 343 341 342 342 342 342 342 342 341 341 341 340 338 337 338 342 344 343 343 344 344 343 343 345 345 345 346 347 348 348 347 347 346 343 342 344 345 345 344 344 346 347 347 347 346 345 345 344 342 341 340 339 338 338 337 337 338 338 338 339 339 339 339
356 355 353 354 355 354 355 355 353 351 352 352 351 353 354 352 350 348 347 346 346 344 342 342 342 343 344 342 342 342 341 341 340 338 339 339 340 341 343 346 347 346 345 344 342 342 342 343 344 346 348 348 348 349 347 344 343 343 343 344 344 345 346 347 346 346 345 343 344 345 344 343 342 341 341 340 339 338 337 337 337 337 338 338 339
357 355 353 353 355 355 354 354 353 352 353 353 351 353 353 352 351 349 347 346 346 344 343 343 343 343 344 342 342 341 340 341 338 338 340 341 340 341 341 343 345 345 346 347 346 345 343 342 343 344 347 348 349 349 348 346 344 344 344 345 345 346 347 346 344 343 341 341 343 344 345 345 344 343 342 342 341 340 339 338 337 336 336 337 338
357 356 354 354 356 355 354 353 352 354 355 353 351 352 352 351 350 348 348 346 345 345 343 343 342 343 343 342 342 340 340 340 339 340 341 340 340 341 341 342 344 344 343 346 348 347 345 343 343 344 345 346 348 349 349 348 346 346 346 346 345 346 347 346 344 342 341 342 343 344 345 346 345 345 344 344 343 342 341 340 339 337 336 335 336
356 357 356 354 357 356 354 354 354 354 353 351 350 351 351 350 348 347 347 346 346 345 343 342 342 341 340 341 342 340 340 341 340 340 341 341 340 340 342 343 344 344 342 344 346 347 346 344 345 345 344 344 345 347 348 347 347 347 347 347 346 346 347 346 344 343 343 343 342 343 344 345 345 345 345 345 345 344 343 343 342 341 339 338 336
353 356 356 354 357 358 355 355 355 354 352 351 351 351 349 348 348 347 347 346 345 344 342 341 340 339 339 341 342 341 341 341 341 340 340 341 339 338 342 342 342 343 343 344 344 345 347 346 346 347 345 344 344 345 345 345 346 346 347 348 348 347 347 347 346 345 345 345 344 344 344 344 345 345 345 345 345 345 344 344 344 343 342 341 340
352 353 354 355 358 358 356 356 356 355 352 352 350 348 347 347 347 347 346 345 344 342 340 340 340 340 339 339 341 340 340 341 341 341 339 339 336 335 340 341 341 341 342 344 344 343 344 345 347 347 346 346 345 345 345 346 346 346 346 347 348 347 347 347 346 345 345 345 345 345 345 345 345 345 345 345 345 345 345 345 344 344 344 343 342
354 352 353 356 357 357 356 356 356 354 352 350 348 347 347 346 344 342 341 341 341 340 339 341 340 340 339 338 341 342 339 338 340 341 338 337 336 334 337 338 339 340 340 341 343 343 343 343 345 345 345 345 345 345 345 346 347 347 346 347 346 346 347 346 346 346 346 346 346 346 345 345 346 346 346 346 346 346 346 345 345 345 344 344 342
355 354 356 356 356 357 356 356 355 351 349 348 347 346 344 342 341 341 340 339 340 341 340 341 340 342 343 340 340 340 340 340 340 340 336 335 335 334 335 335 335 337 338 340 340 341 342 343 343 343 344 344 345 345 345 345 346 346 345 345 345 346 346 346 346 346 346 346 347 346 346 346 346 346 347 347 346 347 346 346 346 346 345 345 344
355 356 358 357 356 357 356 353 351 348 346 345 344 344 343 342 342 342 342 340 340 341 341 340 341 343 343 343 345 342 339 339 339 337 333 331 333 333 333 333 334 333 335 337 338 338 339 341 343 343 344 344 343 343 345 346 344 342 341 342 343 345 346 346 346 346 346 346 347 347 347 347 347 346 347 347 347 347 347 347 347 346 346 346 346
356 357 358 358 355 355 354 351 349 346 345 345 344 343 343 343 343 341 340 340 340 340 341 339 339 341 343 348 352 349 345 341 338 335 331 330 330 332 332 331 333 331 331 334 334 336 337 338 340 340 341 342 342 343 344 343 340 338 339 339 341 342 342 344 345 346 346 346 346 347 347 347 347 347 347 347 347 347 347 347 347 346 346 346 347
357 357 357 356 354 353 352 349 348 346 345 345 343 342 341 342 342 342 341 340 340 341 340 339 339 340 345 350 348 349 353 348 340 335 331 332 331 329 330 331 331 329 330 331 331 333 335 335 336 337 337 339 341 342 342 341 339 336 333 332 333 334 335 338 342 344 344 345 345 345 345 345 346 346 346 347 347 347 347 347 347 346 346 347 346
357 357 356 354 352 351 350 348 348 346 345 344 340 339 340 341 342 342 341 341 341 340 340 340 339 339 342 346 346 350 352 345 343 342 334 332 333 330 330 332 331 329 330 331 329 330 333 332 333 334 334 335 338 339 340 341 339 333 324 321 322 324 326 329 334 338 339 340 342 342 343 343 343 344 345 346 346 347 347 347 348 347 346 346 346
357 356 354 353 351 350 349 348 348 346 345 343 341 340 340 341 342 341 342 342 340 339 340 339 339 339 339 341 343 347 347 343 347 351 341 331 331 330 330 331 330 330 331 332 330 329 329 330 330 332 332 333 334 335 337 336 333 326 318 316 318 318 319 322 324 327 328 330 332 334 335 336 336 338 340 342 344 345 346 347 347 347 347 346 346
355 354 352 351 351 350 348 347 347 346 344 341 340 339 339 341 341 341 343 341 339 340 341 339 339 340 339 339 339 338 339 341 345 351 351 342 333 328 329 329 328 330 330 330 331 330 329 330 328 328 330 331 330 332 334 333 331 328 321 316 316 316 316 317 318 319 319 320 321 322 324 325 327 328 330 334 337 340 343 345 346 346 347 347 347
354 353 352 351 351 350 348 348 347 345 344 341 338 339 341 342 341 343 342 339 340 342 342 340 340 340 339 338 338 336 335 336 336 340 347 347 341 334 330 328 327 329 329 328 329 330 332 332 329 328 330 329 328 328 331 332 332 332 327 319 315 316 316 316 316 316 317 317 317 317 317 318 319 320 321 324 326 331 336 340 343 344 345 346 346
353 352 352 352 351 350 349 348 346 343 343 341 338 338 341 342 342 343 343 341 342 342 341 340 340 340 339 337 336 335 334 334 333 333 338 343 345 341 332 329 331 330 329 329 330 330 331 333 331 330 330 329 329 328 328 331 332 331 329 324 319 317 317 317 317 316 316 316 316 316 316 316 316 316 317 317 319 321 324 328 332 335 338 341 343
353 352 353 352 352 351 350 349 346 343 341 340 339 339 339 341 342 342 342 343 342 340 340 340 339 340 340 338 337 335 334 335 335 334 335 339 343 340 332 333 336 333 330 331 331 331 332 331 331 330 331 330 330 329 328 329 330 329 329 327 323 321 320 321 321 319 317 316 315 316 315 316 316 316 316 316 316 317 317 319 321 324 327 331 335
353 353 353 352 351 351 350 348 345 343 340 338 339 339 338 338 340 340 341 342 341 340 340 339 339 339 338 338 338 337 337 336 334 333 334 337 341 340 335 335 336 334 332 333 332 333 333 331 331 330 331 330 330 330 330 329 329 329 329 329 328 326 325 326 326 324 322 319 317 316 315 316 316 316 316 316 316 316 316 317 317 317 319 321 323
353 353 353 353 352 351 349 347 344 343 340 339 340 339 338 337 339 340 340 341 341 341 340 339 338 338 337 336 336 336 336 334 333 333 335 336 338 340 337 336 337 336 334 333 333 334 334 333 332 331 331 331 331 331 331 331 330 330 330 331 330 329 329 329 329 326 326 324 320 318 316 316 316 316 316 317 317 317 317 317 317 317 317 317 317
353 352 352 352 352 350 348 346 344 342 340 339 339 339 338 338 340 340 340 340 340 340 340 339 338 337 337 337 336 335 334 333 333 334 334 333 335 339 339 337 338 337 334 334 334 334 334 333 332 332 331 331 331 332 331 331 331 331 331 332 331 330 331 330 329 328 327 327 325 322 319 317 316 316 317 316 316 317 317 317 317 317 317 317 317
354 352 351 351 350 348 347 345 344 343 341 340 339 339 339 339 340 339 339 340 339 340 340 338 337 337 337 337 336 335 334 334 334 333 333 333 335 338 339 339 337 336 336 335 334 334 334 333 332 332 331 331 331 331 331 331 331 331 332 332 331 331 331 330 329 329 330 330 329 328 326 323 319 316 316 317 317 317 317 317 317 317 317 317 317
354 352 350 349 349 348 345 344 345 343 342 341 340 340 340 340 340 339 339 339 338 339 339 338 337 337 337 336 335 335 335 336 336 335 334 335 336 337 339 341 340 339 338 337 335 335 334 333 333 332 332 332 331 331 331 332 332 332 332 332 331 331 331 330 331 331 331 331 330 330 330 328 324 319 317 316 316 317 317 317 317 317 318 318 318
353 351 349 349 349 348 346 344 345 344 342 342 342 342 340 339 340 340 339 339 338 339 339 338 338 337 336 336 335 334 334 336 336 335 335 336 337 337 337 339 340 341 341 340 338 336 334 332 331 331 332 331 331 331 332 333 332 333 332 332 331 331 332 332 332 331 330 330 330 330 331 329 326 323 320 318 317 316 316 317 317 317 317 318 318
353 351 349 349 349 348 346 345 346 345 343 342 343 341 340 339 340 340 339 338 338 338 338 338 338 337 336 335 334 333 334 335 334 334 335 336 337 337 338 338 339 341 342 341 340 337 334 333 331 331 332 331 331 331 332 332 332 332 332 331 332 332 332 332 332 332 330 330 330 330 330 328 324 322 321 320 318 317 316 316 317 318 318 318 318
353 352 349 348 348 347 347 346 346 345 344 343 342 341 339 339 339 340 339 337 337 338 337 337 338 337 337 336 336 336 335 335 335 335 336 336 337 338 339 338 338 340 341 342 341 337 334 333 333 332 332 331 331 331 331 332 332 331 331 331 332 332 331 331 332 332 332 331 330 329 328 327 326 324 322 321 319 318 317 317 317 319 319 319 319
353 352 351 348 347 347 347 346 345 345 345 344 342 340 340 339 339 340 339 337 337 337 337 337 338 337 337 337 336 335 335 335 335 335 336 336 337 336 337 337 337 338 339 340 342 340 336 335 334 333 332 332 331 330 331 331 331 332 332 332 332 331 331 331 331 331 331 332 332 330 329 329 329 329 328 327 326 323 322 322 322 321 321 320 320
354 353 351 350 348 347 347 347 345 344 344 343 342 341 341 340 340 341 340 338 338 337 337 337 337 337 336 336 336 335 335 336 336 336 336 336 336 335 335 335 335 336 337 339 341 340 336 335 335 333 333 332 331 331 330 330 331 332 332 332 332 331 332 332 332 332 333 333 333 332 332 331 330 330 330 330 330 328 327 326 326 325 323 322 321
355 354 352 351 349 348 347 346 345 344 344 343 342 341 341 341 341 340 339 339 338 337 337 337 337 337 336 336 336 336 336 337 337 337 337 336 335 335 335 334 334 335 336 336 338 338 336 334 334 334 334 333 332 331 331 331 331 332 332 332 332 331 332 332 332 333 333 333 333 332 332 332 331 331 330 330 329 329 328 327 326 325 324 323 323
355 354 353 351 349 348 347 345 344 344 343 343 343 342 341 341 341 340 339 339 338 337 336 337 337 337 336 335 336 337 337 337 337 336 337 335 335 334 334 334 334 334 334 334 335 336 336 334 334 334 334 334 333 332 332 332 332 332 332 332 332 332 332 332 332 332 333 332 332 332 331 331 331 330 329 329 328 328 327 326 325 325 324 324 324
355 355 353 351 349 348 346 344 343 344 343 343 343 342 341 341 341 341 340 340 340 338 337 337 338 337 336 336 336 337 337 337 336 336 336 335 335 334 334 334 334 334 334 335 335 336 336 335 334 334 335 335 334 334 333 333 333 332 332 332 332 332 332 332 332 331 331 331 331 331 330 330 329 329 328 328 327 327 326 326 325 325 325 324 325
357 356 354 352 349 348 346 343 342 344 344 343 343 343 342 341 341 341 340 340 339 339 338 338 338 338 337 336 337 337 337 337 336 335 335 335 334 334 334 334 335 335 335 335 335 335 336 336 335 335 335 335 335 335 335 334 333 331 331 331 331 331 331 331 331 331 330 330 330 330 329 329 329 328 328 327 327 327 326 326 326 325 325 325 324
357 357 354 352 350 348 345 342 342 344 344 343 343 343 342 342 341 340 340 340 339 339 339 338 338 338 337 337 337 337 337 336 335 335 335 335 334 333 334 334 334 334 335 335 335 335 335 336 335 335 334 334 335 335 334 334 332 330 330 329 330 330 330 331 331 330 330 329 329 329 329 329 328 328 328 328 328 327 327 327 326 326 325 325 324
358 357 355 351 349 348 345 343 342 343 344 344 344 343 343 342 341 340 341 341 341 340 339 338 338 338 338 337 337 338 337 336 336 335 335 334 333 333 333 334 334 334 335 335 335 336 336 335 335 334 334 334 334 333 333 332 331 330 329 329 329 329 330 330 330 329 329 329 329 330 330 329 329 329 329 328 328 328 328 327 326 326 325 325 325
359 357 355 352 349 347 345 344 342 342 343 344 344 343 343 343 341 340 340 341 341 341 340 339 338 338 337 337 338 337 337 336 336 335 335 334 333 332 333 333 333 334 335 335 335 335 335 335 335 334 334 333 333 332 331 331 330 330 329 329 330 329 329 329 329 328 328 329 329 330 329 329 329 329 329 329 328 328 327 327 327 326 325 325 325
359 357 355 353 349 347 346 344 343 343 344 344 344 343 343 343 342 340 340 341 341 340 340 339 338 337 337 337 337 337 337 336 336 335 334 333 332 332 332 333 334 335 334 334 335 335 335 335 335 334 333 333 332 331 330 330 330 330 329 329 330 329 328 328 328 328 329 329 329 328 328 328 328 329 329 328 328 328 328 327 327 326 325 325 325
358 356 355 353 350 348 346 344 344 344 343 343 343 343 343 343 341 339 339 341 341 340 339 339 338 337 337 337 337 337 336 336 335 334 334 333 333 333 333 334 334 332 331 332 333 334 335 335 334 334 333 332 332 331 330 330 330 330 329 329 329 329 329 329 329 329 328 327 327 328 327 328 328 328 328 328 328 328 327 327 326 326 325 325 325
358 356 355 353 350 349 347 346 346 345 343 342 342 342 342 341 339 338 339 340 341 340 339 339 338 337 337 337 336 336 335 335 334 333 333 333 332 332 333 333 332 330 331 333 333 334 335 334 333 332 332 331 331 330 330 330 329 329 329 329 330 330 329 329 329 328 327 326 327 328 328 327 327 327 327 327 326 325 324 324 324 324 325 325 325
357 355 355 353 350 349 350 348 345 344 343 343 342 340 338 337 336 337 339 340 341 340 339 339 338 338 338 337 337 336 335 334 334 333 332 332 332 332 332 332 332 331 332 333 333 333 334 333 331 331 331 331 331 330 330 330 329 329 329 329 329 330 329 329 329 327 326 326 327 328 328 326 326 325 325 324 323 322 322 323 323 323 323 323 323
357 355 354 353 350 350 351 348 343 343 345 344 341 337 334 333 334 337 339 341 342 341 340 339 339 339 339 338 337 337 336 335 334 334 333 333 332 332 333 333 332 332 332 332 332 333 333 330 329 329 330 331 331 330 330 330 330 329 329 328 328 328 328 327 327 326 325 325 326 326 325 324 323 323 323 323 322 322 322 322 322 322 322 322 322
357 356 354 352 350 351 351 348 345 346 346 344 340 336 332 331 334 336 338 340 341 341 340 340 339 340 339 338 338 338 337 336 335 334 333 332 332 332 333 332 332 331 331 331 332 333 333 330 329 329 331 331 331 330 329 330 329 328 327 326 326 325 325 325 324 324 324 323 324 324 323 323 323 322 323 322 322 322 323 323 323 322 321 321 321
356 356 354 351 351 351 350 349 348 346 344 341 339 334 329 330 333 335 337 340 341 340 340 340 340 339 338 339 340 340 339 337 336 335 333 333 333 333 333 334 332 331 331 331 332 332 332 332 331 330 331 330 330 330 329 328 327 326 325 324 323 323 323 322 322 322 322 321 322 323 323 323 322 322 323 322 322 322 322 322 321 320 320 320 320
355 354 353 351 351 350 349 348 347 345 342 339 337 333 328 328 329 329 335 341 341 339 339 338 337 337 338 338 338 339 339 338 336 335 334 333 334 334 334 334 333 332 332 332 332 331 331 331 330 329 329 329 329 329 327 325 324 323 322 321 321 321 321 322 322 322 321 321 320 321 323 322 321 321 321 320 320 320 320 319 319 318 318 318 318
356 355 354 352 351 349 348 347 345 343 339 337 336 333 328 327 325 325 331 339 341 339 337 337 336 337 338 337 336 337 338 338 336 334 334 334 334 333 333 334 333 333 333 332 331 331 331 330 329 329 329 329 328 326 324 322 321 321 320 320 320 321 321 322 323 322 322 321 320 320 321 320 319 319 319 319 319 319 318 318 317 317 317 317 316
356 356 355 353 351 349 347 345 343 341 338 335 335 332 329 328 327 326 329 335 339 338 336 336 337 337 337 337 336 336 336 335 334 334 334 334 333 331 332 335 335 335 334 331 330 330 330 329 328 327 326 326 325 324 323 322 322 320 320 321 321 321 322 323 323 322 322 321 321 320 319 319 318 318 318 317 316 316 315 314 314 314 315 316 317
355 355 354 353 351 349 347 344 343 340 338 336 335 333 332 332 332 331 330 332 336 336 335 336 337 337 338 339 338 337 335 332 333 334 333 332 331 329 332 335 336 334 333 331 330 329 328 327 327 326 325 325 325 324 323 322 321 321 321 321 320 321 322 323 323 323 323 322 321 319 318 318 317 316 315 314 313 312 312 312 313 314 317 319 320
354 353 352 351 350 348 346 343 342 340 339 338 335 334 335 335 336 335 332 333 334 335 336 337 338 339 340 340 341 339 332 328 332 334 332 330 330 330 333 335 334 332 330 329 329 328 328 327 326 325 325 324 324 323 322 321 322 321 321 321 321 322 323 324 324 324 323 321 319 316 315 315 314 312 312 312 313 313 314 315 316 318 320 321 322
Wind_Speed
6 6 5 4 4 3 2 2 2 3 3 4 5 4 3 4 5 6 7 8 7 6 6 6 8 6 3 5 6 7 5 2 1 2 5 8 5 1 1 1 1 0 3 5 7 9 11 12 12 12 11 10 10 9 9 8 9 9 10 10 10 10 10 10 10 10 10 10 10 10 10 10 10 10 9 9 9 9 8 8 8 7 7 7 7
4 5 4 3 4 3 3 2 3 4 3 4 5 4 4 4 5 6 7 8 6 5 6 7 7 4 4 5 5 6 6 6 4 4 5 8 6 1 1 2 2 1 2 3 4 6 8 11 11 12 12 11 10 10 10 9 10 11 12 11 11 10 11 11 10 10 10 10 10 10 10 10 10 11 10 10 10 10 9 9 9 9 8 9 9
3 4 4 3 3 3 3 3 3 3 2 2 4 3 3 5 6 6 6 6 5 4 5 7 5 3 4 4 4 6 7 7 6 6 3 5 4 2 1 2 2 2 3 2 2 4 5 8 10 11 12 11 11 11 11 13 14 15 13 11 11 11 11 11 10 10 10 10 11 10 11 11 11 11 11 11 11 10 10 10 10 10 10 10 10
4 3 4 3 4 4 4 4 3 4 5 3 5 4 4 7 7 6 5 4 4 4 6 8 6 6 6 6 5 5 7 5 6 7 4 2 2 4 3 2 1 2 3 3 2 3 3 5 8 10 11 12 12 12 13 15 16 15 13 12 12 13 12 11 11 10 11 11 11 11 11 12 12 12 12 12 12 12 11 11 11 11 11 11 11
8 6 5 4 4 5 5 5 6 6 6 6 5 5 5 7 7 6 4 4 4 5 6 7 6 6 5 6 5 4 6 6 6 8 6 5 5 1 1 2 1 0 2 3 3 3 3 3 5 7 10 11 11 12 14 15 14 14 14 14 15 14 12 11 11 10 12 13 12 13 13 13 13 13 13 13 13 13 13 13 12 13 13 12 12
9 8 7 6 5 6 7 7 7 6 7 7 5 3 5 7 7 5 3 3 5 5 4 5 5 5 3 5 6 5 6 7 5 6 4 6 8 5 5 4 1 2 2 2 1 3 3 3 3 5 7 9 10 12 14 13 13 14 15 16 16 16 13 13 13 13 15 16 15 14 14 14 14 14 15 15 15 15 14 14 14 14 14 14 14
9 9 8 7 6 6 8 9 8 7 7 7 5 4 4 5 6 5 2 4 6 5 4 4 3 2 2 3 3 4 7 7 6 5 3 6 5 4 5 4 5 5 4 5 3 1 3 3 3 4 5 7 9 11 12 12 12 13 14 16 17 16 14 14 17 18 19 19 16 14 15 15 16 16 16 16 16 16 15 15 15 14 14 15 15
10 9 9 8 6 6 7 9 8 7 7 7 5 4 4 4 4 4 4 5 5 5 5 6 4 0 3 5 0 3 7 7 7 6 7 7 3 3 3 4 5 6 5 6 4 2 3 3 2 3 4 5 7 9 9 10 11 12 13 14 16 16 15 15 18 19 20 19 17 15 16 16 17 17 17 17 17 17 16 16 16 15 15 15 15
11 10 10 8 7 6 7 7 7 6 6 6 6 5 5 4 3 3 4 4 4 6 7 6 5 3 5 6 2 3 6 7 6 7 7 4 2 4 4 5 5 6 5 6 7 5 5 3 2 2 4 4 5 6 7 8 8 10 11 12 13 13 14 15 17 17 19 19 19 18 18 18 18 17 17 18 18 18 17 17 17 17 16 16 16
11 11 11 9 8 6 6 6 6 6 6 6 6 5 2 2 3 3 4 4 3 7 7 7 6 4 5 5 5 3 3 6 4 4 5 0 2 2 3 5 6 8 7 6 8 8 6 4 3 3 4 4 5 5 5 6 6 7 8 8 9 11 12 14 16 16 17 18 19 19 19 19 19 19 19 19 19 19 19 19 18 18 17 17 16
13 12 11 9 8 7 6 6 6 5 5 5 3 1 1 0 2 2 4 4 4 6 6 5 5 5 5 4 4 2 1 3 2 1 2 2 2 3 6 9 8 8 8 6 7 9 8 7 6 5 4 4 4 4 4 5 6 6 6 7 8 9 10 12 14 15 15 16 17 18 19 19 20 20 20 20 20 20 20 20 20 19 19 18 18
13 11 11 10 8 8 8 8 7 5 3 2 2 3 2 0 1 3 3 4 4 5 3 3 6 6 6 3 1 0 1 2 2 4 4 3 4 4 5 11 11 8 7 7 7 8 8 9 8 7 7 6 5 5 4 4 5 6 6 7 8 9 10 11 11 13 13 14 15 16 18 19 20 20 20 20 21 21 21 22 22 21 21 20 20
13 12 11 11 9 8 9 8 6 3 4 3 3 4 2 0 1 3 2 3 4 3 1 2 5 5 5 4 5 2 3 3 2 6 4 4 8 5 5 9 11 7 7 8 8 9 9 8 8 8 7 7 6 5 4 3 3 3 3 5 6 7 8 9 10 11 11 12 13 14 15 17 18 19 19 20 21 21 22 22 21 21 21 21 21
13 12 12 11 9 7 7 7 7 8 6 2 2 3 1 1 1 2 2 2 2 3 1 1 4 5 4 1 3 2 3 5 6 6 2 3 6 8 9 10 10 6 7 9 9 10 9 8 7 7 5 5 5 4 5 4 2 0 1 2 3 4 4 5 6 7 9 9 10 12 13 15 16 18 18 19 20 21 21 21 21 22 21 22 22
12 12 10 9 7 6 7 8 9 8 6 3 3 3 1 1 1 2 3 2 3 2 2 1 4 6 2 2 1 1 1 5 6 3 1 3 5 10 11 9 8 5 6 9 8 7 8 7 7 7 6 5 4 4 5 3 2 2 1 2 2 4 4 5 4 4 6 7 8 9 11 13 14 15 16 17 18 20 20 21 22 23 22 22 22
11 11 9 8 8 8 9 9 8 6 6 5 3 3 2 2 2 2 2 4 5 3 2 1 2 5 3 1 3 2 0 3 4 3 1 3 4 6 6 6 6 5 5 5 6 5 6 7 7 7 8 6 5 5 4 4 3 3 3 3 3 4 5 5 4 4 5 6 6 7 8 10 12 13 14 15 16 17 19 20 20 21 21 22 22
9 10 10 9 10 10 10 10 9 7 6 6 4 3 4 5 5 3 3 4 5 1 4 2 3 4 2 2 2 1 2 4 3 1 2 5 2 5 6 6 5 5 4 2 5 6 6 8 7 6 7 7 6 6 5 4 2 3 4 3 2 1 3 4 5 6 7 7 8 8 9 9 10 11 12 13 14 15 16 17 18 19 19 19 20
10 10 10 10 11 11 11 11 10 8 6 4 4 5 5 4 5 3 3 2 4 3 2 3 2 2 1 1 1 1 3 6 4 2 3 7 8 3 6 7 4 2 2 3 5 6 5 6 5 4 5 5 4 3 4 5 1 3 3 3 3 3 2 2 4 5 6 7 8 9 9 10 10 11 11 11 12 13 14 15 16 17 18 18 18
12 11 11 11 12 12 12 11 10 9 6 5 5 6 6 4 4 3 2 1 1 5 5 3 3 1 2 3 2 2 2 4 3 1 2 3 8 7 2 6 3 5 4 4 8 6 3 3 3 3 2 2 3 1 3 2 3 4 3 3 3 4 4 4 4 4 5 6 6 7 7 9 10 10 10 10 11 12 13 14 15 16 16 16 17
12 12 12 13 13 13 12 11 10 9 8 7 5 5 6 7 5 4 3 2 1 3 5 3 2 1 2 2 2 2 2 1 2 1 2 1 4 6 4 6 2 6 6 1 5 5 4 2 4 3 1 0 2 0 2 3 4 4 5 5 4 4 4 5 5 6 6 6 6 7 7 8 9 9 10 10 10 11 12 14 15 15 16 16 16
13 14 14 14 14 14 13 11 10 9 8 7 7 6 6 7 5 4 4 3 2 0 2 3 4 1 2 1 0 1 2 1 3 2 1 1 2 4 3 1 5 6 6 1 4 6 3 3 3 3 1 1 1 1 1 2 4 5 7 8 8 7 6 6 6 7 7 8 8 8 8 8 9 9 10 10 10 11 12 13 15 16 16 16 16
13 14 15 15 14 14 13 12 10 10 9 7 8 9 8 7 6 5 5 5 4 2 1 1 1 1 1 2 1 2 3 0 1 1 2 2 1 5 6 6 7 3 1 3 5 3 2 1 1 3 2 3 1 2 4 4 5 6 8 10 12 11 9 10 10 10 10 10 9 10 10 10 10 10 11 11 11 11 11 13 14 15 16 16 17
14 15 15 15 15 14 13 12 10 9 10 8 7 9 9 9 9 8 7 6 5 4 2 2 3 1 1 4 4 6 6 1 1 2 2 2 2 3 7 9 8 6 4 4 5 5 5 3 4 4 4 5 4 4 6 5 5 7 11 14 15 13 12 13 14 14 14 13 12 11 11 11 11 11 11 11 12 11 12 12 13 14 15 16 17
16 16 15 15 15 14 13 12 11 10 10 10 8 8 9 11 12 10 9 7 5 6 5 3 4 4 4 6 7 8 6 3 1 1 2 2 1 2 6 9 8 7 7 7 7 7 6 4 5 5 5 6 5 5 6 6 8 11 14 16 16 14 14 14 15 17 17 16 14 13 13 12 12 12 11 11 12 11 12 12 12 13 14 15 16
17 16 16 17 16 14 13 12 12 12 10 10 10 9 8 10 14 11 9 10 8 7 7 5 5 6 5 4 5 5 2 1 2 2 1 2 3 1 4 7 6 8 10 8 7 10 9 7 7 7 6 6 6 8 9 9 10 12 13 15 15 14 15 17 18 18 16 15 15 15 15 15 13 12 11 11 11 11 10 10 11 12 12 13 14
18 17 16 17 17 14 13 12 11 13 12 11 12 10 8 9 12 11 10 11 9 8 8 7 6 6 5 4 3 4 4 3 1 2 3 1 1 1 2 4 6 9 11 8 6 8 9 10 11 9 8 8 9 10 11 10 10 11 12 12 13 14 16 19 20 18 16 15 16 16 17 17 17 15 13 12 11 10 10 9 10 11 12 13 13
19 19 17 18 18 16 16 15 12 13 14 13 13 12 11 10 9 11 11 11 11 9 8 8 7 6 5 4 4 5 5 5 3 1 2 2 2 1 2 1 3 6 8 7 5 7 10 11 10 9 10 9 9 10 11 10 10 12 12 14 16 17 18 20 19 18 18 18 18 18 19 18 18 18 17 16 14 13 12 11 11 12 13 14 15
19 19 18 19 20 19 19 17 15 15 16 16 15 14 15 14 12 12 12 11 11 10 9 8 8 8 8 7 7 7 5 4 4 3 2 2 2 2 2 2 1 2 4 5 5 7 10 11 8 4 7 7 6 7 9 11 12 13 15 17 19 19 19 19 19 19 19 20 20 20 20 20 19 20 20 20 19 18 17 16 16 16 16 17 17
21 21 20 20 21 21 21 19 17 17 17 18 17 17 18 17 15 15 14 12 11 11 10 9 9 10 10 9 9 8 6 5 5 4 4 5 5 5 4 4 4 2 2 2 3 5 9 10 8 3 2 3 4 6 9 12 13 13 14 16 18 19 19 20 20 20 20 20 21 21 21 22 22 21 21 22 23 22 21 21 20 20 20 20 20
22 22 22 22 21 22 21 20 19 19 19 20 20 19 19 18 17 16 16 15 12 11 12 11 10 9 7 7 7 7 6 6 7 6 5 5 5 5 6 6 7 7 5 2 3 6 9 9 8 6 6 7 9 10 11 12 12 13 14 16 18 19 21 21 22 23 22 23 24 24 24 22 21 20 19 20 21 22 23 22 22 22 22 22 22
24 23 24 24 24 23 23 21 21 21 21 21 21 20 19 19 18 17 17 16 13 12 12 11 11 10 8 7 7 7 7 8 7 6 5 5 5 6 7 7 7 7 8 5 3 5 7 7 9 10 11 12 13 13 13 13 14 15 16 18 20 21 22 22 23 24 25 25 24 24 22 21 20 19 19 19 19 20 21 22 22 23 23 24 24
25 26 26 26 26 26 25 23 23 23 23 22 22 22 20 20 19 18 18 18 16 14 14 13 12 12 11 11 10 9 9 9 8 7 7 7 7 8 9 8 7 7 8 7 4 6 9 9 11 12 12 12 14 13 13 14 15 15 16 17 20 21 21 22 22 23 22 22 23 22 21 20 20 20 20 21 21 21 22 24 25 24 24 24 25
27 28 28 28 28 28 26 25 25 26 25 24 23 23 22 21 20 19 19 19 19 18 17 15 15 14 12 12 11 11 10 10 9 9 9 8 8 11 12 10 8 8 8 8 7 8 12 13 12 13 14 14 15 14 14 15 15 14 15 16 18 19 20 21 22 22 22 21 22 22 21 21 21 21 22 23 23 23 24 25 25 23 23 23 23
30 29 30 30 30 30 29 28 27 28 28 27 25 25 24 23 21 20 20 21 22 22 21 20 18 16 14 13 12 12 11 10 10 10 9 9 9 10 9 6 6 7 7 8 8 8 12 15 15 16 16 15 16 16 16 16 16 16 16 16 17 19 20 20 22 22 21 20 20 21 22 23 23 23 24 24 24 25 26 26 26 25 24 23 23
31 31 32 32 32 32 31 30 30 30 30 29 27 26 26 25 24 23 23 22 22 24 24 22 20 18 16 15 14 13 12 11 11 11 10 9 9 8 6 6 7 8 8 9 9 9 11 14 16 16 16 16 18 19 18 18 18 17 17 18 18 19 19 20 21 22 21 21 21 22 24 24 24 24 25 26 27 27 28 29 29 29 28 27 25
31 33 33 33 33 34 33 33 33 32 32 31 29 28 28 27 27 25 25 24 23 22 22 21 20 19 18 17 16 14 13 12 11 11 10 9 10 9 8 9 9 9 10 10 11 11 11 13 15 16 16 17 19 19 19 18 18 18 18 17 18 19 19 20 20 22 22 23 24 24 24 24 25 27 28 29 29 29 30 30 30 30 30 30 29
31 33 34 33 34 35 35 35 35 34 33 33 31 29 28 29 29 27 25 24 23 23 22 21 20 20 19 18 17 15 14 13 12 11 11 11 11 10 10 11 10 10 11 11 12 13 13 14 16 17 17 18 18 19 18 18 19 19 18 18 18 19 20 20 21 22 22 22 23 23 23 23 25 26 27 27 28 29 29 30 30 30 30 30 31
31 32 35 35 35 36 37 36 36 36 34 33 33 30 28 28 29 28 26 25 23 23 23 22 21 20 20 19 17 16 15 14 13 12 12 11 11 11 11 11 10 10 10 11 12 13 13 15 16 16 17 17 18 19 19 18 19 20 20 21 20 20 20 19 19 19 21 22 22 22 22 24 25 26 26 27 29 29 30 31 31 32 31 32 33
31 31 33 36 37 37 37 36 36 36 35 34 34 32 29 28 29 28 27 26 24 23 22 22 21 20 19 19 18 17 16 15 14 13 12 12 11 12 12 11 10 10 11 12 14 15 15 15 15 15 16 16 18 19 20 20 20 20 20 20 19 19 19 18 17 19 21 22 23 24 25 26 26 26 26 27 28 29 29 30 31 31 32 33 33
31 30 31 34 36 37 37 37 36 36 35 34 34 33 31 29 29 29 28 27 26 24 23 22 21 21 20 19 19 18 18 17 16 15 14 13 13 13 13 11 10 9 11 13 15 16 16 15 15 15 16 16 17 18 19 19 18 17 17 17 18 19 19 18 18 19 21 23 24 26 26 25 24 24 24 25 26 28 28 29 30 31 31 31 31
31 30 30 32 34 35 36 36 34 35 35 34 34 35 34 31 30 29 28 27 26 25 24 22 22 21 20 20 19 19 18 18 18 17 16 15 15 14 13 11 10 10 12 14 16 17 16 15 15 15 15 15 16 16 17 17 17 18 18 18 17 18 18 18 18 18 20 23 26 26 25 24 24 24 24 25 25 26 27 28 29 29 29 28 28
31 29 29 31 32 33 34 34 34 34 34 34 35 36 36 34 31 29 29 28 26 25 24 23 23 22 21 20 19 17 17 16 16 16 17 17 16 15 14 14 14 14 15 16 17 17 16 14 14 14 14 14 15 15 16 18 19 19 18 16 15 16 17 16 17 17 18 21 24 25 24 22 22 24 25 25 27 28 29 30 29 29 28 28 28
32 30 29 30 31 30 31 33 34 33 32 33 35 37 36 35 31 29 28 27 27 26 25 24 23 22 22 21 19 18 19 19 16 15 17 17 16 16 16 16 16 17 17 18 18 18 16 15 15 15 15 15 16 17 17 17 17 17 16 16 16 16 15 13 13 15 16 18 22 25 25 23 23 26 28 28 30 31 30 30 29 28 28 28 30
30 30 28 30 30 28 27 30 32 33 31 32 35 38 37 34 31 29 27 26 26 26 25 24 23 22 21 20 19 19 19 20 18 17 16 15 15 16 17 17 18 18 19 20 20 20 18 17 17 17 18 17 16 16 16 15 15 16 16 16 16 16 16 15 15 16 17 19 23 27 30 29 26 27 29 29 29 30 29 30 29 27 27 29 30
26 28 27 28 29 28 26 27 29 30 30 32 36 37 36 34 32 29 27 25 25 25 24 24 23 22 21 20 19 19 19 18 18 17 15 14 15 16 16 18 19 19 21 22 22 20 19 19 20 20 20 19 17 17 17 17 17 17 15 15 16 18 19 19 19 20 21 23 26 28 30 29 26 25 28 29 29 30 31 31 29 27 28 29 29
24 25 25 25 27 27 27 28 29 28 28 31 35 36 37 36 34 31 28 25 23 24 25 25 25 23 22 22 20 19 19 18 18 16 14 14 14 14 16 18 18 19 20 22 21 19 18 19 21 23 23 23 22 21 19 17 16 15 15 16 19 20 22 22 22 24 25 25 26 26 26 26 24 24 27 28 28 28 28 27 26 26 27 29 31
24 24 23 24 25 28 28 27 28 27 25 28 32 35 36 36 34 33 31 27 23 22 22 24 25 23 23 25 23 19 18 18 17 15 14 13 13 14 16 18 19 19 19 20 19 17 16 16 19 21 22 21 21 20 17 16 17 18 19 20 21 22 24 23 23 24 24 23 24 23 23 23 22 21 24 27 27 27 27 27 28 29 30 33 35
21 21 21 22 24 26 26 25 26 26 24 24 28 31 34 36 34 33 34 32 27 23 20 20 22 21 21 23 23 19 17 16 15 14 14 14 13 14 17 19 19 19 20 19 17 15 15 17 18 19 18 18 18 18 17 18 20 21 21 21 21 22 22 20 19 21 20 20 21 23 24 23 21 22 25 27 26 27 29 29 30 32 34 35 35
19 18 18 19 19 21 23 24 25 24 22 23 26 29 33 34 32 31 34 33 30 27 24 21 21 21 21 22 22 20 16 12 14 16 15 15 15 15 17 18 17 18 18 15 13 13 15 16 16 16 16 16 17 17 18 20 20 21 21 20 22 23 20 15 14 16 18 19 22 25 25 23 20 21 24 25 25 27 29 31 33 33 33 33 33
18 18 18 18 18 18 18 20 22 23 22 24 27 28 28 28 27 28 31 31 29 29 28 25 25 25 24 23 21 19 14 9 14 18 17 16 16 16 17 16 14 14 14 12 11 12 12 13 13 13 14 15 16 17 19 21 20 21 23 26 27 24 17 14 15 17 19 21 23 22 21 19 19 21 23 26 27 29 30 30 31 31 31 31 31
18 17 18 18 17 16 16 17 19 21 22 23 26 26 24 24 24 26 29 29 27 28 28 27 27 24 20 19 19 16 10 10 17 21 18 16 16 16 14 13 11 12 12 11 10 10 11 13 14 15 15 16 16 18 21 22 21 21 24 28 28 24 19 19 20 17 13 14 17 19 19 20 21 23 24 21 18 21 26 27 28 29 30 31 31
Wind_Direction
207 196 187 181 191 216 236 294 308 285 283 292 315 317 307 344 349 333 338 344 350 346 343 336 330 334 17 28 353 335 341 331 282 267 235 224 234 255 348 18 71 276 216 202 193 194 201 207 213 209 203 201 199 198 197 199 208 214 216 217 217 217 220 222 219 219 220 222 224 226 230 232 233 236 235 235 238 236 237 237 240 243 244 249 255
204 184 174 160 191 223 214 225 256 266 293 308 302 305 311 340 349 335 339 342 341 335 333 330 322 344 36 21 349 350 5 350 320 283 251 204 197 201 358 2 46 80 175 195 201 194 193 199 207 210 210 208 206 204 201 205 213 219 219 218 220 223 225 227 227 228 227 228 229 232 235 238 240 241 241 241 243 243 243 243 243 247 250 252 257
232 177 169 186 229 240 211 232 258 250 271 306 287 293 312 317 322 323 330 332 330 328 328 315 312 13 16 355 2 359 2 352 322 309 291 188 200 259 267 346 24 93 114 136 195 205 196 196 200 206 209 211 210 206 206 212 214 217 220 219 222 227 229 231 233 236 237 235 235 236 238 242 244 246 247 246 245 246 246 249 248 250 253 255 259
235 185 176 213 252 269 252 249 245 237 252 268 280 284 295 304 307 305 320 348 346 322 311 305 329 29 1 353 20 359 351 336 305 335 15 112 295 255 223 323 10 101 87 90 121 181 192 197 201 203 204 207 208 205 210 220 219 214 215 220 226 229 228 230 232 238 242 241 240 242 241 242 245 247 249 250 249 249 249 252 254 254 257 257 259
222 207 205 220 249 273 268 250 237 243 258 262 274 283 289 298 297 294 317 355 317 294 305 316 352 26 0 355 5 350 338 312 309 352 16 35 9 255 222 317 271 37 63 75 86 127 156 180 199 200 201 204 203 201 210 224 224 216 214 217 224 228 228 232 234 240 246 245 241 242 244 242 244 246 247 249 249 250 251 252 256 258 260 261 260
215 216 216 214 240 259 255 256 256 255 256 259 270 277 292 306 301 297 326 323 297 299 322 328 353 13 7 348 343 349 325 308 340 359 6 26 15 21 25 14 11 4 11 21 59 120 129 146 183 198 200 202 199 203 215 226 227 220 217 218 223 224 224 230 229 232 242 243 236 233 239 242 243 245 246 248 249 250 251 252 254 257 260 263 263
213 218 219 216 225 245 254 264 268 255 247 259 265 254 278 309 301 295 305 304 312 330 332 320 327 355 341 303 327 357 319 324 4 356 42 51 24 24 25 26 29 20 18 353 323 184 127 130 165 194 199 201 197 208 224 234 236 228 221 221 226 224 221 228 227 228 237 241 238 232 235 240 243 244 246 249 250 251 253 253 254 256 258 261 264
216 218 225 227 221 236 256 262 259 242 238 253 258 254 273 291 287 287 302 316 326 319 306 299 286 258 304 285 303 12 332 348 0 355 35 43 31 68 41 27 22 16 36 31 27 117 108 102 161 193 194 196 198 214 230 238 243 239 233 228 228 227 226 234 236 234 237 241 242 240 237 240 243 244 246 249 251 253 254 255 256 256 257 259 261
218 219 229 235 229 232 245 255 252 239 239 251 260 264 270 280 290 293 309 324 318 304 305 314 329 8 323 310 54 22 337 359 353 352 13 11 35 68 68 66 57 33 39 49 54 86 106 107 145 175 184 192 198 216 231 238 244 243 242 239 233 230 230 237 242 240 240 241 241 241 240 241 246 246 248 250 250 252 253 255 256 256 257 258 259
223 223 232 239 236 227 230 243 235 225 232 249 270 279 277 289 294 291 304 310 297 303 318 337 343 334 307 340 50 24 336 7 359 355 356 85 78 69 134 104 82 64 47 47 57 69 83 93 108 132 171 192 199 207 222 229 236 237 235 241 239 235 233 237 243 244 243 242 242 242 242 243 247 249 249 252 252 252 253 254 255 256 257 257 259
230 228 232 234 230 222 216 214 209 218 242 261 276 284 74 353 289 280 293 297 280 293 311 319 310 297 302 343 25 4 338 356 323 312 337 147 85 19 119 101 80 77 60 55 62 62 65 72 83 99 135 158 174 186 212 223 226 234 230 236 244 245 246 246 248 249 248 247 247 247 246 245 248 250 251 253 254 253 253 254 254 256 257 258 259
232 231 226 222 219 218 208 200 211 233 234 231 177 141 123 138 294 299 296 297 277 278 291 299 313 322 317 295 202 80 219 280 263 241 273 160 108 18 88 83 66 69 68 74 69 60 64 65 70 79 98 118 129 140 164 210 221 231 236 243 254 258 258 258 255 254 255 253 252 251 249 248 249 251 252 252 254 254 255 255 255 255 256 257 258
229 223 215 215 214 209 204 202 207 182 146 150 138 126 100 154 304 318 299 301 286 275 266 318 335 323 297 264 174 186 257 258 266 248 264 109 106 75 67 60 53 50 58 82 84 75 76 67 62 64 77 103 115 115 124 152 191 211 235 256 264 267 265 263 261 258 259 258 256 255 253 253 253 253 253 252 252 253 255 256 256 256 256 256 257
224 216 212 211 209 198 187 182 165 140 136 157 140 127 114 225 295 310 267 280 283 304 351 10 328 298 277 292 171 205 258 254 270 253 231 106 118 98 80 61 54 38 35 67 82 78 76 74 73 71 77 94 87 95 127 135 124 191 255 266 258 264 271 270 270 265 262 260 256 257 258 258 258 256 255 255 254 254 254 255 256 256 256 256 257
213 210 209 197 186 171 153 150 155 150 148 160 155 153 166 183 248 281 269 280 254 272 12 70 328 328 350 64 223 225 251 268 282 263 167 78 100 85 71 72 75 46 28 51 65 74 74 76 80 79 95 107 92 113 133 115 37 359 318 292 269 267 274 269 274 274 267 265 258 255 257 258 258 257 258 259 258 256 255 256 258 256 254 254 256
205 199 194 178 164 155 149 145 155 159 155 158 161 166 173 187 220 261 267 300 273 211 139 147 34 10 17 6 281 275 339 275 268 250 318 27 96 100 67 79 85 43 29 44 50 75 74 63 68 74 87 97 104 124 116 77 34 7 358 338 298 276 277 269 263 262 263 268 267 262 261 262 263 263 262 262 262 260 258 258 259 259 258 255 255
194 183 174 170 163 157 156 155 156 156 162 173 163 168 199 194 185 219 253 312 318 192 139 125 71 39 20 359 308 284 356 311 293 275 308 315 274 149 132 132 113 32 31 62 54 74 67 50 59 72 74 83 104 120 110 99 91 2 7 17 18 321 285 270 261 262 268 273 277 280 281 281 280 277 272 267 265 263 260 259 258 260 263 262 258
186 176 169 168 164 163 163 163 164 158 164 185 167 176 211 190 162 186 246 297 343 345 59 117 101 30 53 63 72 123 334 322 339 1 291 306 325 22 121 133 128 81 102 145 123 98 68 47 51 64 68 76 95 131 147 142 182 325 0 24 28 18 2 319 288 282 285 285 284 285 285 286 286 286 283 276 270 267 264 262 259 259 261 263 261
184 176 175 172 167 167 168 167 169 165 164 183 193 200 198 170 146 151 199 219 333 338 350 120 150 218 158 155 152 110 338 324 8 8 309 316 315 316 129 124 136 172 146 142 149 127 59 55 55 35 40 67 71 124 189 180 305 321 344 358 5 356 353 350 334 322 314 309 304 297 291 290 289 288 286 281 276 272 268 265 263 262 261 261 261
183 177 174 173 170 170 173 171 176 178 168 165 194 211 167 145 136 141 161 196 196 340 350 37 48 344 145 153 172 153 221 230 100 63 334 348 294 290 172 140 143 154 131 81 149 107 31 97 92 42 13 16 75 80 245 277 304 316 326 333 343 339 337 335 328 326 320 317 316 310 306 302 300 298 293 289 283 276 272 267 265 265 264 262 262
181 177 172 174 173 173 176 174 177 183 173 173 196 193 154 144 141 136 148 167 174 205 1 18 8 18 134 94 283 284 269 192 119 144 116 52 329 305 269 20 34 102 124 30 85 77 45 103 82 30 24 225 245 251 241 254 278 299 310 317 324 321 321 320 314 311 307 306 307 306 306 304 302 303 301 299 293 286 281 276 272 269 267 265 263
178 177 175 176 175 174 175 175 181 186 180 189 197 179 161 162 168 161 165 178 181 184 182 100 39 10 125 146 177 283 293 17 25 258 106 81 282 293 315 7 30 51 101 25 39 34 338 353 329 307 249 204 206 259 246 240 249 271 284 294 304 305 307 312 309 303 298 293 293 294 297 299 299 300 299 299 296 293 289 284 282 278 275 271 268
177 176 176 178 177 177 176 179 189 189 181 187 191 179 174 176 180 175 174 186 177 175 199 155 162 244 182 170 199 239 239 195 314 292 83 56 313 316 336 355 357 342 352 7 352 320 301 273 240 252 242 232 253 267 247 228 229 263 284 288 288 284 289 300 303 302 296 288 285 284 285 289 292 294 295 297 295 294 292 288 286 283 281 279 276
181 178 179 182 180 179 184 190 192 183 181 188 187 193 193 181 178 176 176 189 180 175 199 190 182 209 213 210 231 238 218 165 215 287 76 91 52 353 333 337 338 327 333 346 341 317 297 266 247 258 253 240 243 244 248 259 267 279 286 284 281 279 283 290 296 298 293 285 282 281 281 281 282 286 289 292 294 294 294 294 292 289 287 285 283
184 180 181 185 183 182 189 194 187 178 182 189 188 201 204 175 169 172 178 186 186 184 195 199 195 211 235 244 248 249 236 138 218 265 11 132 157 185 304 312 315 314 319 324 320 311 305 295 289 285 266 238 231 241 253 266 275 282 279 272 272 278 285 291 296 298 291 283 281 281 283 281 278 279 281 285 290 292 295 297 300 300 299 296 292
185 183 184 187 184 184 191 195 187 181 183 187 189 197 198 173 165 171 181 186 188 191 197 207 208 216 242 265 277 287 315 345 295 244 301 314 134 116 297 297 308 311 311 308 300 300 297 288 287 282 255 238 248 265 267 257 258 272 275 269 269 277 287 291 294 293 287 284 285 286 286 283 279 276 275 276 280 285 291 295 300 306 308 308 306
187 187 186 188 187 186 191 195 194 189 187 187 189 193 195 186 170 175 187 190 191 195 201 207 206 205 226 245 274 291 309 333 341 306 319 359 68 30 346 326 324 312 309 319 317 290 282 282 280 261 240 241 264 276 277 268 259 266 274 275 276 281 285 286 288 288 286 284 284 287 290 288 282 277 274 274 273 275 281 287 293 299 303 306 308
189 189 187 191 192 191 190 192 194 193 190 190 189 190 193 191 184 185 191 190 189 196 205 209 206 209 213 212 232 252 268 300 307 303 308 301 267 279 277 259 271 305 311 321 318 305 304 309 315 266 220 236 275 272 270 274 270 274 279 279 280 282 281 281 281 281 282 282 282 283 285 287 286 281 276 273 272 273 276 281 286 291 294 297 299
190 190 190 192 191 188 187 189 193 194 192 192 192 193 193 191 189 189 189 190 192 197 208 217 217 220 219 212 218 226 230 261 275 268 252 249 258 259 250 249 235 221 282 302 300 306 305 309 322 341 179 229 278 272 269 275 278 282 283 281 282 282 281 282 280 277 276 276 277 277 278 283 285 283 278 274 271 272 273 278 283 286 288 289 290
190 192 192 193 191 187 187 190 193 194 194 194 194 195 195 191 191 191 191 194 197 198 207 220 228 233 231 223 224 222 224 247 257 252 237 224 231 238 236 236 227 225 237 253 272 271 275 290 302 308 312 304 296 288 277 274 276 278 278 278 278 278 279 280 277 276 275 274 274 275 276 279 280 280 279 277 274 274 274 276 278 281 284 285 285
194 194 193 193 193 192 191 192 193 194 195 197 196 196 195 192 192 194 195 195 198 199 202 212 225 234 232 227 235 236 238 250 254 255 250 233 233 236 230 224 223 233 246 254 262 244 250 280 291 288 296 297 296 295 285 277 273 271 272 274 276 278 278 276 275 277 279 279 278 277 276 277 278 279 280 280 279 277 276 277 278 281 284 286 287
196 196 194 193 194 194 192 192 192 193 195 198 198 197 196 196 194 195 196 196 198 201 204 210 221 227 224 222 233 237 234 240 243 243 245 245 244 237 228 224 229 242 250 252 258 259 264 277 284 287 293 294 296 298 293 287 280 272 270 273 278 281 279 277 279 281 283 284 284 282 279 279 280 280 278 278 277 276 277 280 283 285 284 286 289
197 197 195 194 195 194 192 191 192 193 195 197 198 198 199 199 199 199 199 200 200 199 201 208 216 221 219 216 223 228 227 233 235 236 243 249 252 246 231 220 228 240 243 245 253 273 285 289 291 296 301 301 300 298 297 297 291 281 276 277 278 277 276 277 279 280 281 282 282 282 281 281 281 279 278 278 276 275 277 281 284 285 284 287 290
198 197 196 196 196 194 192 192 193 194 195 196 196 198 199 200 201 202 204 206 204 200 200 203 209 217 221 219 220 222 224 233 238 240 244 244 252 257 243 224 238 248 246 254 258 267 285 294 299 303 305 305 302 301 301 300 298 293 285 280 277 274 274 275 277 278 279 278 278 279 279 279 279 279 280 280 277 277 280 282 283 282 282 284 287
199 199 198 197 196 195 193 193 194 195 196 196 195 198 199 200 202 204 207 209 206 201 199 201 204 209 216 218 218 218 220 227 232 235 238 237 246 263 269 264 263 261 257 261 264 266 277 287 294 299 301 301 299 299 299 297 296 295 287 282 280 276 275 276 276 277 277 276 277 277 278 278 278 279 280 279 277 278 281 283 283 282 281 280 282
199 199 199 198 197 195 193 194 195 195 196 196 196 198 199 201 203 206 210 213 213 209 205 203 203 206 211 214 214 213 217 223 228 231 230 230 237 248 258 262 259 259 262 261 263 266 270 279 287 291 295 297 297 297 297 294 294 293 286 283 282 280 279 279 277 276 276 277 277 276 276 276 276 279 281 279 277 277 279 281 282 281 279 277 280
199 199 199 199 197 196 195 195 195 195 196 196 196 197 200 202 204 206 210 214 217 217 214 210 208 208 211 213 213 211 214 221 226 230 229 228 233 240 246 254 258 262 264 263 266 266 265 270 279 286 292 295 294 294 295 294 293 291 288 286 285 281 281 280 278 278 280 281 281 281 279 278 278 279 279 279 277 277 278 278 278 278 277 276 279
199 197 198 199 199 198 197 197 196 196 196 196 196 197 199 203 205 206 209 212 214 214 214 212 211 211 212 213 213 212 213 218 222 225 225 226 232 240 244 249 257 266 269 270 272 271 268 270 276 283 289 291 292 293 294 294 291 289 290 290 287 283 281 280 278 279 282 282 281 280 279 279 280 278 277 277 277 277 278 279 279 277 276 276 277
197 197 198 199 200 200 199 198 198 197 195 196 197 198 199 202 205 206 208 212 213 212 213 214 214 213 213 215 216 214 214 218 221 223 224 225 232 240 245 249 258 267 271 273 274 273 273 275 278 281 286 289 290 290 294 295 289 285 287 288 288 289 288 286 284 285 286 284 281 280 280 281 281 279 277 277 277 278 280 282 282 279 276 275 275
199 198 198 199 201 201 200 200 199 197 196 195 196 198 199 202 204 205 207 210 213 213 214 216 216 214 213 215 217 218 218 218 219 221 222 225 232 238 241 247 254 264 274 277 277 276 275 274 278 282 286 289 289 289 295 297 289 285 288 287 287 291 292 291 291 291 289 287 286 285 284 283 281 279 278 279 280 281 282 282 282 281 279 278 277
201 201 199 198 199 200 200 200 199 198 197 196 197 198 199 200 203 205 206 208 210 211 214 216 216 215 213 214 216 217 218 217 216 218 221 223 230 235 236 238 248 265 277 279 279 278 275 273 277 283 286 286 288 293 298 299 297 297 298 295 290 292 295 295 292 291 292 291 289 285 283 282 281 281 282 282 283 283 282 283 283 283 283 282 281
201 203 201 198 198 199 200 199 198 197 198 200 200 200 200 200 202 203 204 207 209 210 212 214 216 215 214 215 217 217 217 216 214 216 219 221 226 233 238 246 258 270 275 275 275 275 274 273 276 281 284 284 286 292 296 298 300 302 303 304 302 300 300 297 293 294 297 295 291 287 285 284 284 285 286 285 285 284 284 284 284 283 282 282 280
202 204 202 198 196 198 198 197 197 198 201 203 202 204 204 203 201 200 202 205 207 210 212 213 214 216 215 215 217 217 215 216 217 218 218 220 226 236 246 256 266 272 272 272 272 272 270 269 272 276 276 277 282 289 294 297 300 303 307 308 305 301 300 297 296 298 301 299 298 296 292 290 290 289 288 287 286 286 285 286 285 282 280 278 278
202 202 203 199 195 195 197 197 197 200 203 204 206 207 207 205 203 201 202 205 207 210 213 214 215 217 217 217 217 215 212 213 218 220 220 225 236 244 251 261 272 276 274 273 271 269 265 263 266 269 270 274 281 287 291 296 299 301 304 303 301 302 303 300 297 296 299 300 302 300 295 292 292 289 286 286 287 287 286 285 284 281 279 279 279
201 201 202 199 194 195 197 198 199 201 203 206 208 208 206 207 205 202 204 209 210 211 213 215 216 215 216 219 215 205 204 206 208 212 220 232 241 247 257 267 275 278 276 274 273 270 265 262 262 264 268 273 279 284 288 291 293 294 298 300 300 301 299 295 293 293 297 299 297 292 288 289 290 286 282 284 286 285 282 280 279 279 281 282 282
200 199 200 198 197 198 201 202 203 203 204 207 209 208 207 209 207 204 206 210 213 215 215 215 217 215 214 215 207 193 194 199 201 209 223 236 241 252 264 269 274 279 278 276 276 274 271 268 265 267 271 274 276 280 283 286 287 287 289 293 295 295 292 290 291 292 294 295 291 283 280 284 288 283 280 285 288 285 283 282 283 285 286 285 284
199 198 198 198 199 202 204 204 204 204 205 207 209 210 210 211 211 209 209 210 216 221 218 216 219 216 210 209 206 198 198 204 211 221 233 239 243 251 256 260 268 274 275 275 275 276 277 276 275 277 278 275 274 275 277 283 287 287 287 288 287 287 286 287 289 289 289 291 288 280 276 283 289 286 286 291 293 291 291 291 290 290 288 286 285
196 194 196 198 202 204 204 205 205 205 205 204 207 211 213 213 213 213 213 216 221 226 227 226 225 217 207 207 209 207 208 214 225 236 241 242 243 246 249 255 263 267 268 271 274 273 271 273 280 283 280 275 275 276 280 286 291 292 289 284 279 278 278 281 284 283 285 291 292 284 280 286 293 293 292 294 295 295 294 293 291 289 287 286 287
190 190 192 198 204 207 206 208 208 206 205 205 208 213 215 214 213 214 216 219 223 229 234 235 232 224 215 213 215 213 209 219 236 242 244 241 240 245 248 250 254 257 261 268 273 273 273 276 281 283 281 281 279 280 283 287 291 291 282 272 272 273 272 273 278 283 289 294 293 287 284 289 300 302 299 301 301 298 296 293 290 288 287 286 287
197 199 199 203 208 207 206 208 208 206 206 207 208 210 212 211 210 213 216 218 223 229 234 236 235 229 217 211 212 208 201 221 245 245 242 240 243 251 250 245 245 250 257 267 270 272 275 278 283 287 288 287 281 280 286 287 287 283 272 267 272 273 268 272 282 287 289 288 288 292 293 300 312 315 311 309 303 296 293 292 290 289 288 288 289
205 204 201 202 204 204 207 211 210 208 209 208 207 208 209 207 207 211 213 214 218 225 230 232 230 223 210 199 194 191 199 243 250 242 240 244 250 254 248 239 241 248 256 262 262 267 274 279 285 289 289 288 283 282 284 283 281 283 281 279 278 272 264 270 277 282 285 285 293 306 313 314 316 315 312 309 301 296 295 293 292 292 291 291 292